Lapse_Rate
6.5 6.5 6.5 6.3 6.2 6.2 6.3 5.9 6.1 6.1 6.1 6.6 6.4 5.9 6.1 6.0 6.1 5.9 5.9 5.5 5.7 5.8 5.9 5.8 5.8 5.9 6.0 5.9 6.0 6.0 5.7 5.6 5.6 5.6 5.6 5.6 5.6 5.6 5.6 5.8 5.6 5.4 5.3 5.0 5.0 4.8 4.8 4.8 4.8
6.2 6.2 6.2 6.2 6.0 5.9 5.8 5.4 5.8 6.1 6.4 6.2 5.9 5.3 5.6 6.0 6.2 6.0 5.7 5.6 5.9 5.8 5.9 5.8 5.9 5.9 5.9 5.8 5.8 5.9 5.8 5.7 5.5 5.5 5.5 5.4 5.3 5.3 5.4 5.5 5.5 5.4 5.1 5.0 4.8 4.9 4.9 4.9 4.8
6.0 6.1 6.2 6.2 6.0 5.7 5.4 5.1 5.5 6.1 6.2 6.1 5.9 5.5 5.5 6.1 6.0 5.6 5.6 5.7 5.6 5.9 6.0 5.8 5.7 5.8 5.7 5.6 5.6 5.6 5.6 5.6 5.6 5.6 5.6 5.5 5.4 5.5 5.5 5.4 5.4 5.5 5.2 5.1 4.8 4.8 4.9 5.0 4.9
6.1 5.9 6.0 6.1 5.7 5.4 5.3 5.1 5.3 5.5 5.6 5.9 5.9 5.5 5.5 6.0 5.4 5.3 5.3 5.2 5.2 5.3 5.6 5.7 5.7 5.6 5.8 5.6 5.6 5.6 5.4 5.4 5.4 5.4 5.5 5.4 5.5 5.6 5.6 5.6 5.5 5.5 5.5 5.2 4.8 4.9 5.0 5.0 5.0
5.9 5.9 5.8 6.2 5.4 5.1 5.2 5.4 5.5 5.5 5.6 5.4 5.4 5.7 5.7 5.4 5.3 5.3 5.4 5.4 5.2 5.2 5.3 5.4 5.5 5.6 5.5 5.5 5.5 5.5 5.5 5.3 5.3 5.3 5.4 5.4 5.5 5.6 5.5 5.6 5.5 5.4 5.4 5.4 5.1 4.8 4.9 4.9 4.9
5.9 5.7 5.6 6.1 5.1 5.2 5.5 5.6 5.3 5.3 5.3 5.6 5.2 5.5 5.4 5.4 5.4 5.5 5.4 5.4 5.3 5.2 5.3 5.3 5.4 5.5 5.5 5.5 5.5 5.4 5.4 5.2 5.1 5.2 5.3 5.3 5.5 5.5 5.6 5.5 5.6 5.6 5.4 5.4 5.3 5.2 5.1 5.2 5.1
5.7 5.6 5.7 5.7 4.9 5.0 5.6 5.4 5.5 5.3 5.6 5.8 5.0 4.8 5.5 6.0 5.8 5.6 5.5 5.4 5.5 5.3 5.2 5.3 5.4 5.5 5.4 5.5 5.5 5.5 5.5 5.3 5.2 5.2 5.2 5.2 5.3 5.4 5.5 5.5 5.5 5.5 5.5 5.4 5.3 5.2 5.3 5.3 5.1
5.9 5.9 5.9 5.5 5.0 5.2 5.7 5.6 5.5 5.7 6.0 5.8 5.1 5.0 5.9 6.2 6.1 6.0 5.8 5.7 5.7 5.6 5.5 5.3 5.4 5.4 5.3 5.2 5.3 5.3 5.3 5.5 5.4 5.3 5.1 5.2 5.4 5.4 5.4 5.5 5.4 5.4 5.5 5.4 5.4 5.3 5.2 5.2 5.3
5.9 5.7 5.5 5.1 4.8 5.5 5.9 5.9 5.9 5.7 5.9 5.8 5.5 5.0 5.6 6.7 6.3 6.1 6.1 6.1 6.1 6.1 6.0 5.7 5.6 5.6 5.6 5.3 5.3 5.2 5.2 5.2 5.2 5.3 5.3 5.3 5.3 5.3 5.3 5.5 5.4 5.5 5.4 5.4 5.5 5.5 5.3 5.2 5.1
5.2 5.3 5.2 5.4 5.7 6.5 6.2 6.2 6.0 5.9 5.9 5.9 6.0 6.1 5.9 6.1 6.0 6.1 6.2 6.4 6.5 6.3 6.3 6.2 6.1 5.9 5.8 5.8 5.6 5.4 5.3 5.2 5.2 5.2 5.3 5.4 5.4 5.4 5.3 5.4 5.5 5.2 5.2 5.4 5.4 5.5 5.5 5.5 5.2
5.2 5.4 5.4 5.6 5.8 5.9 5.8 6.2 6.0 6.0 5.9 6.2 6.4 6.5 6.2 6.3 6.4 6.5 6.5 6.5 6.6 6.6 6.4 6.3 6.4 6.3 6.1 5.9 5.9 5.8 5.6 5.5 5.4 5.3 5.3 5.2 5.3 5.5 5.4 5.4 5.3 5.2 5.2 5.3 5.2 5.3 5.4 5.3 5.4
5.5 5.6 5.7 5.6 5.7 5.9 5.9 6.1 6.2 6.2 5.9 6.1 6.3 6.2 6.3 6.2 6.3 6.5 6.5 6.4 6.4 6.5 6.6 6.5 6.4 6.4 6.4 6.3 6.0 5.9 5.8 5.7 5.6 5.5 5.3 5.3 5.4 5.3 5.3 5.4 5.3 5.4 5.3 5.3 5.2 5.2 5.2 5.3 5.4
5.7 5.8 6.0 5.8 5.7 5.9 6.0 6.1 6.1 6.1 6.3 6.2 6.1 6.2 6.2 6.2 6.2 6.2 6.2 6.2 6.2 6.2 6.3 6.4 6.4 6.3 6.3 6.3 6.2 6.1 6.0 5.8 5.6 5.8 5.6 5.5 5.5 5.4 5.4 5.3 5.5 5.8 5.5 5.8 5.8 5.5 5.6 5.4 5.2
6.3 5.9 5.9 5.8 6.0 6.0 6.0 5.9 6.1 6.4 6.3 6.2 6.2 6.0 6.0 6.1 6.0 6.0 6.0 6.3 6.3 6.3 6.2 6.1 6.2 6.3 6.2 6.1 6.0 6.2 6.0 5.9 5.9 5.7 5.8 5.3 5.4 5.5 5.5 5.3 5.6 5.7 5.7 5.8 5.5 5.5 5.6 5.7 5.8
6.1 6.1 6.0 6.2 6.2 6.3 6.3 6.2 6.3 6.2 6.5 6.4 6.1 6.1 6.1 5.9 6.0 6.1 6.1 6.0 6.0 5.8 5.7 5.7 5.6 5.6 5.7 5.9 5.8 5.6 5.9 5.8 5.6 5.6 5.5 5.6 5.4 5.4 5.4 5.5 5.5 5.5 5.7 5.5 5.5 5.4 5.6 5.5 5.7
6.1 6.1 6.2 6.4 6.4 6.3 6.4 6.5 6.5 6.5 6.5 6.3 6.0 6.1 6.0 5.8 5.8 5.9 5.9 6.0 5.8 5.7 5.6 5.5 5.4 5.4 5.4 5.5 5.6 5.7 5.5 5.7 5.5 5.3 5.2 5.5 5.7 5.5 5.3 5.5 5.7 5.7 5.6 5.6 5.5 5.5 5.5 5.8 5.6
5.9 6.1 6.2 6.4 6.3 6.4 6.4 6.5 6.3 6.4 6.3 6.2 5.9 6.0 6.1 6.0 6.1 6.0 6.1 5.9 5.7 5.3 5.4 5.5 5.5 5.5 5.4 5.5 5.5 5.6 5.6 5.6 5.7 5.3 5.1 5.3 5.6 5.6 5.8 5.6 6.0 6.2 5.8 5.4 5.5 5.6 5.4 5.3 5.3
6.1 6.0 5.7 5.7 6.1 6.3 6.3 6.8 5.9 5.8 5.6 5.5 5.8 6.1 6.3 6.2 6.0 6.1 5.7 5.5 5.5 5.4 5.3 5.2 5.1 5.1 5.3 5.4 5.4 5.5 5.6 5.8 5.7 5.5 5.2 5.4 5.7 5.8 5.7 5.8 6.0 6.0 6.0 5.8 5.6 5.6 5.6 5.4 5.4
5.8 5.8 5.7 5.4 6.2 6.1 6.1 6.5 6.6 5.9 5.8 5.5 6.0 5.8 5.6 5.9 5.5 5.4 5.4 5.3 5.1 5.1 5.0 4.7 4.5 4.5 4.5 4.7 5.0 5.1 5.2 5.1 5.2 5.4 5.4 5.4 5.9 5.7 5.7 5.7 5.9 6.2 6.0 6.0 5.8 5.7 5.8 5.9 5.8
5.9 5.7 5.5 5.6 5.7 5.9 5.9 6.6 6.4 6.4 6.2 5.8 5.4 5.5 5.7 5.5 5.4 5.4 5.1 5.0 5.2 5.5 5.6 5.3 5.3 5.1 4.9 4.9 5.2 5.5 5.3 5.1 5.2 5.3 5.4 5.7 5.7 5.9 5.9 6.0 6.0 6.1 6.1 6.1 6.1 5.9 5.8 5.8 5.9
5.5 5.4 5.6 5.4 5.8 5.6 6.1 6.2 6.3 6.3 6.1 5.8 5.3 5.7 5.6 5.5 5.5 5.9 6.0 5.9 6.0 5.7 5.8 5.8 5.7 5.7 5.6 5.4 5.7 5.5 5.1 5.3 5.3 5.3 5.1 5.2 5.6 6.0 6.4 6.4 5.9 5.8 5.9 6.0 6.0 6.1 5.9 5.7 5.6
5.8 5.5 5.4 5.1 5.5 5.3 5.4 4.4 6.2 6.2 5.9 5.6 6.1 5.7 5.7 5.7 5.6 5.8 5.8 6.1 6.3 6.1 6.2 6.2 5.9 5.6 5.5 5.3 5.5 5.5 5.5 5.6 6.0 6.3 6.6 6.5 6.4 6.1 6.0 6.0 6.1 6.0 6.1 6.1 6.2 6.2 6.0 5.8 5.7
5.7 5.3 5.3 5.2 4.9 4.7 5.2 4.5 5.8 5.9 5.5 5.7 5.8 5.7 5.4 5.1 5.6 5.9 6.2 6.4 6.5 6.3 6.2 6.0 5.5 5.4 5.6 5.4 5.9 6.3 6.1 6.1 6.4 6.2 6.3 6.6 6.3 6.2 6.4 6.3 6.1 6.1 5.6 6.0 6.0 5.9 5.9 5.8 5.8
5.6 5.6 5.4 4.7 4.2 3.5 5.3 4.9 6.1 5.8 5.8 5.6 5.5 5.2 5.2 5.2 5.6 6.1 6.2 6.1 6.2 6.0 5.9 5.8 5.5 5.4 5.7 5.9 6.3 6.5 6.4 6.3 6.4 6.4 6.4 6.0 5.9 5.8 6.1 5.8 5.9 6.0 6.3 6.2 6.0 6.0 6.0 6.0 5.9
5.5 5.5 4.9 3.6 3.5 3.5 5.4 5.0 6.3 6.2 6.0 5.7 5.5 5.3 5.5 5.5 5.5 5.8 5.8 5.6 5.8 5.8 5.6 5.6 5.8 5.4 5.6 5.9 6.0 6.2 5.7 6.2 6.1 5.9 6.3 6.3 6.1 6.1 6.2 6.2 6.2 6.2 5.9 6.0 6.1 5.8 5.3 5.1 5.5
4.5 4.5 4.8 3.1 3.6 3.8 5.1 5.3 6.5 6.4 6.3 6.0 5.9 5.8 5.6 5.7 5.8 5.7 5.6 5.6 5.6 5.8 5.7 5.7 5.2 5.0 4.5 4.6 5.0 5.4 5.8 6.1 6.2 5.9 5.8 5.8 5.9 5.9 6.1 5.8 6.0 5.8 5.9 5.7 5.4 5.4 5.5 5.5 5.2
4.8 4.9 4.9 4.7 4.9 4.4 5.3 6.0 6.4 6.5 6.4 6.1 6.0 6.0 6.3 6.1 5.7 5.7 5.7 5.4 5.2 5.2 5.0 4.8 4.5 5.0 4.9 4.5 4.5 4.9 4.9 5.0 5.2 5.2 5.1 5.3 5.3 5.6 5.5 5.4 5.4 5.6 5.4 5.4 5.4 5.4 5.2 5.4 5.4
4.7 4.7 4.7 4.7 3.4 4.8 5.2 5.6 6.3 6.2 6.2 6.3 6.2 6.3 6.3 6.3 6.0 5.8 5.8 5.4 4.9 4.9 4.8 4.8 4.7 4.7 4.7 4.8 4.9 4.9 5.0 5.2 5.2 5.1 5.1 5.1 4.9 5.0 5.1 5.0 4.8 5.6 5.7 5.7 5.6 5.8 5.8 5.7 5.6
4.8 4.6 4.6 4.8 5.0 4.6 4.1 5.5 6.2 6.1 6.2 6.1 6.1 6.0 6.1 6.1 6.0 5.9 5.6 5.2 4.9 5.0 5.1 5.1 5.0 4.8 4.8 4.8 4.8 4.8 4.9 5.0 4.9 5.0 4.9 4.9 5.1 5.2 5.2 5.3 5.3 5.4 5.4 5.5 5.3 5.4 5.5 5.4 5.4
5.0 5.2 5.1 5.0 4.7 5.0 4.9 5.3 6.2 6.1 5.9 5.9 6.0 6.0 5.9 5.8 5.7 5.6 5.4 5.2 5.0 5.0 5.0 4.9 4.7 4.7 4.8 4.9 5.0 5.0 5.0 4.9 4.9 4.9 5.0 5.1 5.1 5.2 5.2 5.2 5.1 5.1 5.2 5.3 5.1 5.2 5.2 5.0 5.2
Wind_Speed
13 14 1 4 4 4 3 3 3 4 4 2 2 10 10 4 5 5 4 7 9 8 12 2 6 8 8 5 3 5 8 8 8 7 8 8 7 9 7 5 4 4 4 6 6 10 12 12 12
7 6 3 2 4 3 4 4 6 5 3 4 7 5 5 3 5 4 5 11 8 11 11 9 9 7 7 6 4 6 8 8 7 6 5 5 7 8 8 6 5 3 4 8 8 12 11 12 11
6 3 3 4 3 2 3 1 7 4 8 6 4 7 4 3 4 3 6 9 10 10 13 16 12 7 6 6 5 5 6 7 7 9 8 8 7 7 8 7 5 2 0 5 12 12 12 12 10
2 4 4 4 3 6 6 3 6 3 6 8 3 7 5 5 3 2 6 9 6 8 14 15 9 4 5 5 5 5 6 7 7 5 7 7 6 6 8 7 6 5 4 6 10 12 10 12 11
2 2 3 1 3 4 5 4 6 5 5 4 4 4 4 3 6 5 6 7 7 6 10 13 16 6 3 5 6 7 7 7 7 6 5 6 7 7 7 8 7 6 7 8 10 11 11 11 11
3 3 3 2 4 4 4 6 4 5 5 4 5 4 2 4 4 2 5 6 7 6 12 12 11 14 7 3 4 7 8 9 9 8 7 7 7 8 7 7 8 9 10 11 13 12 12 11 11
3 3 4 3 7 4 2 5 5 4 5 4 1 4 4 2 4 4 5 6 6 7 8 11 12 11 12 6 6 7 9 10 10 11 10 10 9 10 9 8 9 10 11 13 14 14 13 12 12
3 3 1 3 4 3 3 2 2 6 3 7 2 3 3 3 4 6 6 7 7 6 6 9 10 11 10 8 7 8 9 11 12 12 12 11 11 12 11 11 11 12 13 13 14 15 15 15 14
2 4 2 5 3 4 2 3 4 1 2 3 3 3 3 5 6 7 5 7 6 5 6 9 8 12 11 9 6 6 10 10 10 10 11 11 11 12 14 15 16 16 16 16 16 16 16 16 16
4 4 3 3 2 4 4 5 3 3 6 3 4 7 8 6 7 8 7 6 5 6 7 5 6 8 12 9 9 6 5 9 12 13 14 13 14 15 14 18 21 20 19 18 17 16 16 16 12
1 3 5 3 5 6 4 5 6 3 3 2 3 7 8 8 9 8 7 5 5 5 4 7 6 8 8 7 10 9 9 8 9 12 7 8 10 11 10 10 12 14 19 13 16 15 13 12 11
5 6 5 3 4 4 2 5 6 1 6 3 2 2 4 6 7 6 6 7 7 7 7 8 7 6 7 8 7 9 5 8 6 9 9 7 4 4 3 3 1 4 8 7 9 8 10 12 14
4 3 5 6 4 1 2 4 4 8 9 3 2 2 5 6 6 6 5 6 6 6 7 8 7 6 7 5 7 7 5 6 9 9 13 12 5 4 4 4 4 3 7 8 6 7 7 7 11
4 6 6 4 2 1 2 3 5 5 6 4 4 4 2 3 4 5 6 7 8 8 10 8 9 7 8 5 6 4 8 10 10 7 11 14 11 5 3 4 3 4 7 6 7 5 6 6 7
4 4 2 1 3 0 1 1 6 7 5 3 3 5 6 5 9 10 9 8 8 8 11 13 13 13 10 8 6 6 8 10 6 10 11 14 14 10 6 4 4 4 5 5 6 5 5 4 4
3 4 2 2 3 1 2 5 4 7 6 5 1 5 7 9 7 10 11 11 12 12 12 12 12 13 12 12 6 5 8 9 7 12 13 11 14 15 6 4 4 6 6 4 3 3 3 4 4
3 2 3 1 4 1 2 5 5 2 7 7 4 6 6 6 8 8 8 8 8 9 12 13 13 12 13 12 9 6 8 5 9 12 11 14 11 9 7 5 5 8 3 3 3 4 4 3 4
4 3 1 2 3 2 4 11 10 12 8 7 5 5 6 6 6 6 7 8 8 9 9 10 10 11 13 10 9 5 5 5 9 7 10 14 10 8 6 3 4 4 2 3 2 4 4 4 4
2 4 3 1 3 2 4 9 11 9 7 5 5 6 5 5 4 6 8 9 10 9 11 14 14 12 8 10 9 7 4 4 4 5 12 15 6 6 6 3 2 3 2 2 3 2 4 3 3
5 2 2 2 2 2 5 11 13 9 3 7 6 5 6 4 6 6 8 10 9 10 11 12 12 11 10 7 9 5 4 4 4 3 7 13 10 8 4 3 6 7 5 6 5 4 3 3 3
2 3 3 1 5 3 7 6 2 2 4 5 5 7 6 6 6 6 9 7 8 9 10 11 11 10 10 12 8 7 3 4 4 5 6 8 13 12 11 8 7 7 6 6 7 7 6 8 8
3 4 4 3 4 1 5 4 5 4 5 5 6 6 5 4 3 5 6 7 8 9 8 9 9 10 10 12 9 8 5 4 5 4 7 6 13 12 13 12 8 8 5 6 6 6 6 9 11
2 3 3 3 4 5 3 3 7 3 5 4 4 5 4 2 3 5 4 6 6 7 7 7 9 10 11 11 12 8 8 5 5 4 7 9 8 12 12 12 10 8 5 6 6 5 5 6 8
2 3 2 1 2 2 5 5 5 4 5 4 4 2 1 2 3 4 4 4 4 6 7 6 9 9 10 10 10 10 9 8 6 6 5 6 4 5 6 8 6 5 5 5 5 5 6 5 8
2 4 2 3 1 5 1 3 8 4 1 3 2 1 3 0 1 3 3 4 5 5 6 6 7 8 8 8 8 9 9 8 6 5 5 6 6 7 7 6 6 4 4 4 5 4 6 7 6
2 1 3 4 1 4 2 5 5 4 4 5 4 1 2 2 1 1 2 3 3 4 4 4 4 6 8 7 7 6 6 4 4 5 6 6 5 4 5 5 5 6 5 3 4 3 4 6 5
2 2 2 2 3 3 3 6 1 3 3 4 4 1 3 3 4 3 4 4 4 4 5 3 2 2 4 4 3 4 5 6 4 6 4 2 3 4 6 7 7 7 7 6 5 2 3 4 5
2 4 2 1 2 4 5 5 5 4 7 6 6 5 4 4 5 4 5 5 5 5 3 2 2 3 4 4 4 4 5 4 5 5 5 5 5 5 5 5 5 5 5 6 6 6 5 5 3
5 3 4 2 2 1 3 5 5 6 7 7 7 6 5 5 5 5 6 5 6 5 3 1 1 2 3 4 3 4 5 5 5 5 5 5 5 6 6 6 6 6 6 6 5 6 7 8 8
5 6 5 4 4 3 3 6 5 6 6 6 6 6 6 7 7 7 6 7 6 7 5 4 3 3 3 4 3 3 3 5 5 5 6 6 6 6 6 6 6 6 6 6 6 6 7 9 10
Wind_Direction
315 307 294 21 70 68 264 290 90 56 52 16 62 84 112 64 37 103 167 36 355 3 16 277 187 162 145 149 136 153 159 172 180 170 171 168 154 146 150 146 152 177 208 186 136 144 132 122 113
314 309 50 62 91 97 266 37 81 68 150 72 53 40 55 74 26 81 28 331 13 1 5 336 210 189 152 158 161 163 167 174 184 186 186 181 179 167 162 172 194 223 289 228 168 145 139 129 125
310 248 84 120 137 160 121 10 110 55 41 28 65 58 62 11 24 82 323 344 29 7 8 351 183 186 175 169 177 180 181 186 195 197 185 186 194 189 178 188 189 213 97 108 161 148 138 138 139
337 8 13 105 186 343 113 128 116 67 22 46 76 73 69 342 85 60 353 11 15 19 2 17 10 200 197 191 198 199 209 208 202 179 178 184 193 201 205 193 190 192 185 162 163 152 152 150 148
33 70 64 156 150 128 55 41 45 84 91 41 32 110 88 52 87 52 32 20 26 8 14 26 16 357 248 222 214 211 216 226 225 219 213 211 216 212 204 195 193 198 198 192 180 169 171 168 166
27 100 86 207 115 113 30 13 34 42 69 13 47 99 81 160 98 107 65 26 14 25 18 22 22 14 331 293 249 242 232 222 220 226 231 232 222 223 221 203 204 200 199 191 182 181 181 181 180
110 95 195 149 150 62 48 355 38 359 43 17 9 68 160 179 214 98 63 28 15 18 25 13 10 16 18 327 293 260 248 245 236 231 235 237 238 238 232 220 215 209 209 196 190 187 189 191 191
93 100 246 54 164 109 340 63 37 59 8 310 27 65 149 188 182 68 38 24 3 1 16 5 3 2 356 348 344 264 257 249 253 257 256 251 248 247 240 230 222 215 215 211 202 195 195 195 199
50 67 29 358 85 129 32 74 2 135 5 341 347 137 73 34 39 34 23 3 357 352 354 347 347 342 337 327 323 304 256 256 252 253 253 253 249 248 238 234 228 223 216 212 205 203 202 202 206
71 85 86 12 30 82 77 68 340 31 359 333 352 354 356 32 18 13 358 343 340 329 322 317 323 325 328 317 315 313 254 255 252 242 239 242 241 240 237 232 233 227 221 214 208 206 206 208 211
59 111 154 47 61 48 45 10 322 51 303 111 323 324 357 4 8 351 337 319 303 295 305 304 294 297 311 312 304 302 300 278 246 245 250 267 249 253 258 252 240 223 225 216 212 205 204 196 203
99 65 69 125 56 46 52 327 329 226 243 316 335 70 13 343 320 303 310 316 309 320 308 315 309 296 292 298 301 284 285 295 286 237 219 228 260 229 234 220 269 230 226 204 204 202 205 200 204
73 114 76 103 75 292 300 273 241 269 266 282 19 299 271 272 285 305 313 337 337 331 317 309 317 294 281 288 289 279 267 276 278 280 249 226 223 231 229 233 209 201 213 211 200 204 207 216 216
99 97 115 108 89 290 269 265 8 281 168 168 259 274 297 29 20 17 3 358 8 356 349 331 326 307 293 270 265 261 259 259 279 275 267 235 220 216 217 230 213 214 220 216 211 211 212 207 219
95 100 350 207 166 235 65 262 219 228 209 219 296 44 72 48 27 27 31 38 24 16 4 2 354 345 328 298 271 270 255 250 261 273 267 254 220 215 202 212 218 207 216 216 238 226 224 233 228
85 58 100 228 155 250 42 266 212 198 181 246 69 93 74 73 66 46 35 22 14 11 5 350 348 340 336 324 285 270 270 255 240 262 260 265 227 217 213 198 219 228 232 211 201 217 255 248 223
14 174 168 342 213 136 189 266 234 262 311 267 146 122 98 77 54 43 35 29 17 8 357 341 340 338 338 328 307 280 274 260 251 249 255 258 267 233 212 195 218 211 212 224 218 221 195 229 260
191 154 72 178 209 210 237 263 267 286 285 257 146 105 83 63 52 37 29 18 16 359 351 335 336 333 336 332 328 300 282 270 260 249 257 251 269 297 276 267 275 246 196 241 240 233 235 228 237
95 94 122 308 119 236 240 272 275 253 279 137 124 116 104 92 50 50 35 14 354 358 348 347 340 341 342 341 333 329 297 276 263 247 248 252 270 281 262 273 255 39 16 305 292 271 250 262 230
47 74 35 78 354 272 279 281 289 260 205 157 140 120 91 59 19 23 20 5 350 351 347 340 337 339 344 342 323 294 286 286 272 325 36 34 41 47 57 31 40 20 2 4 350 322 302 262 197
76 63 53 146 330 333 334 303 201 56 130 141 106 101 82 69 34 12 4 6 353 353 345 341 343 342 355 347 328 321 307 353 11 358 57 34 45 29 32 51 45 33 27 355 340 336 308 286 277
95 15 75 5 49 298 66 280 294 208 203 184 95 89 82 60 55 39 6 352 356 346 339 350 346 351 6 358 347 3 27 20 6 28 40 40 45 33 31 28 50 36 21 18 9 355 337 320 288
120 24 1 34 5 47 327 65 274 191 229 167 149 119 93 53 28 46 28 3 349 344 346 354 357 2 4 11 7 5 35 21 5 7 52 59 38 45 36 28 28 37 9 3 358 342 12 4 334
3 45 8 68 44 359 222 149 275 203 208 168 153 115 102 37 42 64 45 13 341 351 356 1 6 1 0 19 9 15 26 29 24 20 29 51 61 43 35 31 25 20 20 355 336 345 350 22 7
56 63 22 354 346 219 207 153 249 216 162 129 175 281 316 276 12 51 7 6 340 352 350 -0 4 6 358 9 24 20 23 23 22 8 13 30 26 44 6 13 9 7 354 345 343 348 353 358 11
93 135 163 213 283 269 326 240 256 148 163 159 164 205 16 28 342 3 327 300 302 323 315 325 355 3 -0 1 360 11 20 11 359 7 18 21 22 1 347 6 12 359 339 348 353 325 359 358 353
167 201 121 64 283 35 240 282 288 171 202 195 212 206 248 247 257 246 271 261 263 261 274 264 337 329 312 333 359 19 20 19 5 14 14 351 358 15 6 8 9 3 353 353 334 339 334 353 350
189 148 151 116 35 288 292 273 240 253 252 218 218 222 210 249 258 225 246 250 238 241 260 36 42 8 335 353 10 20 23 18 14 19 18 11 6 3 6 354 350 345 346 348 356 354 346 335 300
182 220 208 187 179 240 288 264 209 211 220 222 222 205 197 224 238 254 239 243 254 238 235 218 278 311 322 333 330 4 358 1 16 27 16 9 8 2 4 357 354 353 351 350 6 355 356 347 338
176 192 169 131 221 223 188 273 181 196 204 209 214 201 197 217 224 240 247 252 251 235 233 223 235 238 279 306 343 342 7 19 20 9 1 1 358 353 350 350 351 348 345 355 10 359 350 345 343